Location: Unspecified
(0.0000°N, 0.0000°E)
Time: 07:06:59
(UTC+00:00)

Hubble Space Telescope - Visible Passes

Search period start: 13 July 2025 00:00
Search period end: 23 July 2025 00:00
Orbit: 488 x 490 km, 28.5° (Epoch: 12 July)

Date Brightness Start Highest point End Pass type
(mag) Time Alt. Az. Time Alt. Az. Time Alt. Az.
13 Jul 0.4 19:13:02 10° SW 19:16:52 69° SSE 19:18:32 31° ENE visible
14 Jul 3.7 05:22:09 10° N 05:23:20 11° NNE 05:24:32 10° NE visible
14 Jul 0.5 18:46:16 10° SW 18:50:06 74° SSE 18:53:55 10° ENE visible
14 Jul 3.6 20:27:46 10° WNW 20:28:59 14° NW 20:28:59 14° NW visible
15 Jul 3.6 04:55:06 10° N 04:56:36 12° NNE 04:58:05 10° NE visible
15 Jul 3.3 20:01:09 10° WNW 20:03:23 15° NNW 20:05:00 12° N visible
16 Jul 3.5 04:28:06 10° N 04:29:50 13° NNE 04:31:35 10° NE visible
16 Jul 3.5 19:34:34 10° WNW 19:36:38 14° NNW 19:38:42 10° N visible
17 Jul 3.4 04:01:50 12° N 04:03:05 13° NNE 04:05:02 10° ENE visible
17 Jul 0.6 05:39:19 10° WNW 05:43:09 89° NNE 05:47:00 10° ESE visible
17 Jul 3.5 19:07:59 10° WNW 19:09:52 13° NNW 19:11:45 10° N visible
18 Jul 3.9 03:37:52 12° NE 03:37:52 12° NE 03:38:27 10° ENE visible
18 Jul 0.5 05:12:33 10° WNW 05:16:22 84° SSW 05:20:13 10° ESE visible
18 Jul 3.6 18:41:27 10° NW 18:43:06 12° NNW 18:44:46 10° N visible
19 Jul 0.4 04:48:17 39° WNW 04:49:36 78° SSW 04:53:26 10° ESE visible
20 Jul 1.7 04:24:12 37° SE 04:24:12 37° SE 04:26:38 10° SE visible
21 Jul 2.7 05:35:12 10° SW 05:36:08 11° SSW 05:37:04 10° SSW visible
